| time (UTC) | temp F | wind direction | speed MPH | gust MPH | rain 1hr in | rain 24hr in | rain mn in | humidity % | barometer mb |
| 20260505173039 | 51 | 299 | 12.0 | 20.0 | 0.00 | 0.00 | 0.00 | 34 | 1006.7 |
| 20260505171533 | 52 | 266 | 13.0 | 19.0 | 0.00 | 0.00 | 0.00 | 34 | 1006.7 |
| 20260505170033 | 52 | 235 | 14.0 | 26.0 | 0.00 | 0.00 | 0.00 | 31 | 1006.8 |
| 20260505164531 | 51 | 284 | 11.0 | 25.0 | 0.00 | 0.00 | 0.00 | 34 | 1006.6 |
| 20260505163031 | 52 | 277 | 15.0 | 23.0 | 0.00 | 0.00 | 0.00 | 34 | 1006.4 |
| 20260505161535 | 52 | 359 | 10.0 | 23.0 | 0.00 | 0.00 | 0.00 | 34 | 1006.2 |
| 20260505153030 | 50 | 262 | 8.0 | 18.0 | 0.00 | 0.00 | 0.00 | 40 | 1006.3 |
| 20260505151531 | 50 | 279 | 14.0 | 26.0 | 0.00 | 0.00 | 0.00 | 38 | 1006.4 |
| 20260505114542 | 45 | 199 | 3.0 | 6.0 | 0.00 | 0.00 | 0.00 | 58 | 1006.5 |
| 20260505113039 | 45 | 257 | 5.0 | 8.0 | 0.00 | 0.00 | 0.00 | 54 | 1006.0 |
| 20260505111538 | 45 | 245 | 3.0 | 10.0 | 0.00 | 0.00 | 0.00 | 55 | 1005.6 |
| 20260505101535 | 46 | 278 | 3.0 | 8.0 | 0.00 | 0.00 | 0.00 | 60 | 1004.9 |
| 20260505100030 | 46 | 285 | 4.0 | 6.0 | 0.00 | 0.00 | 0.00 | 60 | 1004.3 |
| 20260505094526 | 46 | 299 | 6.0 | 12.0 | 0.00 | 0.00 | 0.00 | 58 | 1004.4 |
| 20260505093034 | 47 | 328 | 7.0 | 14.0 | 0.00 | 0.00 | 0.00 | 57 | 1003.6 |
| 20260505091525 | 47 | 305 | 7.0 | 13.0 | 0.00 | 0.00 | 0.00 | 56 | 1003.6 |
| 20260505090023 | 48 | 287 | 10.0 | 15.0 | 0.00 | 0.00 | 0.00 | 54 | 1004.0 |
| 20260505084522 | 47 | 279 | 7.0 | 11.0 | 0.00 | 0.00 | 0.00 | 55 | 1003.7 |
| 20260505083023 | 47 | 305 | 8.0 | 11.0 | 0.00 | 0.00 | 0.00 | 53 | 1003.2 |
| 20260505081515 | 48 | 315 | 8.0 | 12.0 | 0.00 | 0.00 | 0.00 | 54 | 1002.7 |
| 20260505080011 | 48 | 308 | 11.0 | 15.0 | 0.00 | 0.00 | 0.00 | 53 | 1002.4 |
| 20260505074508 | 49 | 310 | 11.0 | 22.0 | 0.00 | 0.00 | 0.00 | 52 | 1002.1 |
| 20260505073005 | 50 | 305 | 15.0 | 24.0 | 0.00 | 0.00 | 0.00 | 52 | 1001.8 |
| 20260505071501 | 51 | 327 | 13.0 | 20.0 | 0.00 | 0.00 | 0.00 | 54 | 1001.3 |
| 20260505070059 | 52 | 299 | 7.0 | 11.0 | 0.00 | 0.00 | 0.00 | 52 | 1001.2 |
| 20260505064555 | 52 | 267 | 5.0 | 10.0 | 0.00 | 0.00 | 0.00 | 50 | 1000.9 |
| 20260505063119 | 52 | 256 | 5.0 | 8.0 | 0.00 | 0.00 | 0.00 | 50 | 1000.9 |
| 20260505061615 | 53 | 280 | 4.0 | 10.0 | 0.00 | 0.00 | 0.00 | 49 | 1000.6 |
| 20260505060048 | 54 | 359 | 8.0 | 13.0 | 0.00 | 0.00 | 0.00 | 47 | 1000.5 |
| 20260505054544 | 55 | 268 | 9.0 | 19.0 | 0.00 | 0.00 | 0.00 | 46 | 1000.3 |
| 20260505053043 | 55 | 359 | 7.0 | 14.0 | 0.00 | 0.00 | 0.00 | 45 | 1000.0 |
| 20260505051556 | 56 | 257 | 8.0 | 15.0 | 0.00 | 0.00 | 0.00 | 43 | 999.9 |
| 20260505041532 | 59 | 261 | 9.0 | 16.0 | 0.00 | 0.00 | 0.00 | 41 | 999.4 |
| 20260505040032 | 60 | 278 | 9.0 | 18.0 | 0.00 | 0.00 | 0.00 | 38 | 999.3 |
| 20260505034531 | 60 | 359 | 11.0 | 19.0 | 0.00 | 0.00 | 0.00 | 38 | 999.2 |
| 20260505033030 | 61 | 267 | 12.0 | 19.0 | 0.00 | 0.00 | 0.00 | 37 | 999.0 |
| 20260505031529 | 61 | 249 | 11.0 | 20.0 | 0.00 | 0.00 | 0.00 | 36 | 999.0 |
| 20260505030030 | 62 | 276 | 15.0 | 24.0 | 0.00 | 0.00 | 0.00 | 36 | 998.7 |
| 20260505024527 | 63 | 268 | 14.0 | 24.0 | 0.00 | 0.00 | 0.00 | 36 | 998.2 |
| 20260505023027 | 64 | 299 | 16.0 | 26.0 | 0.00 | 0.00 | 0.00 | 36 | 998.0 |
| 20260505021527 | 65 | 256 | 15.0 | 25.0 | 0.00 | 0.00 | 0.00 | 37 | 998.1 |
| 20260505020025 | 67 | 251 | 16.0 | 27.0 | 0.00 | 0.00 | 0.00 | 36 | 997.8 |
| 20260505014525 | 68 | 243 | 13.0 | 20.0 | 0.00 | 0.00 | 0.00 | 35 | 997.4 |
| 20260505013025 | 69 | 256 | 17.0 | 27.0 | 0.00 | 0.00 | 0.00 | 35 | 996.9 |
| 20260505011525 | 70 | 260 | 16.0 | 28.0 | 0.00 | 0.00 | 0.00 | 36 | 996.4 |
| 20260505010024 | 71 | 240 | 8.0 | 15.0 | 0.00 | 0.00 | 0.00 | 42 | 995.4 |
| 20260505004524 | 72 | 228 | 11.0 | 19.0 | 0.00 | 0.00 | 0.00 | 44 | 994.7 |
| 20260505003024 | 72 | 228 | 10.0 | 18.0 | 0.00 | 0.00 | 0.00 | 43 | 994.4 |
| 20260505001522 | 73 | 211 | 11.0 | 17.0 | 0.00 | 0.00 | 0.00 | 41 | 994.1 |
| 20260505000021 | 74 | 212 | 8.0 | 11.0 | 0.00 | 0.00 | 0.00 | 41 | 993.9 |
| 20260504234523 | 74 | 213 | 6.0 | 11.0 | 0.00 | 0.00 | 0.00 | 41 | 994.0 |
| 20260504233019 | 74 | 359 | 8.0 | 14.0 | 0.00 | 0.00 | 0.00 | 40 | 994.1 |
| 20260504231518 | 75 | 257 | 5.0 | 10.0 | 0.00 | 0.00 | 0.00 | 42 | 994.2 |
| 20260504230016 | 75 | 200 | 5.0 | 13.0 | 0.00 | 0.00 | 0.00 | 42 | 994.3 |
| 20260504224514 | 74 | 173 | 9.0 | 22.0 | 0.00 | 0.00 | 0.00 | 44 | 994.9 |
| 20260504223013 | 77 | 201 | 13.0 | 22.0 | 0.00 | 0.00 | 0.00 | 35 | 994.8 |
| 20260504221513 | 78 | 187 | 15.0 | 21.0 | 0.00 | 0.00 | 0.00 | 32 | 994.5 |
| 20260504220012 | 78 | 201 | 16.0 | 25.0 | 0.00 | 0.00 | 0.00 | 32 | 994.7 |
| 20260504214510 | 77 | 258 | 14.0 | 26.0 | 0.00 | 0.00 | 0.00 | 32 | 994.9 |
| 20260504213013 | 79 | 203 | 17.0 | 25.0 | 0.00 | 0.00 | 0.00 | 31 | 995.0 |
| 20260504211507 | 78 | 212 | 15.0 | 29.0 | 0.00 | 0.00 | 0.00 | 31 | 995.0 |
| 20260504210005 | 78 | 229 | 19.0 | 31.0 | 0.00 | 0.00 | 0.00 | 30 | 995.4 |
| 20260504204503 | 79 | 204 | 14.0 | 28.0 | 0.00 | 0.00 | 0.00 | 31 | 995.6 |
| 20260504203002 | 78 | 216 | 17.0 | 26.0 | 0.00 | 0.00 | 0.00 | 30 | 995.7 |
| 20260504201600 | 78 | 359 | 15.0 | 26.0 | 0.00 | 0.00 | 0.00 | 33 | 995.7 |
| 20260504201500 | 78 | 210 | 14.0 | 26.0 | 0.00 | 0.00 | 0.00 | 32 | 995.8 |
| 20260504200059 | 77 | 193 | 19.0 | 33.0 | 0.00 | 0.00 | 0.00 | 31 | 995.9 |
| 20260504194602 | 77 | 210 | 17.0 | 27.0 | 0.00 | 0.00 | 0.00 | 30 | 996.2 |
| 20260504193057 | 78 | 183 | 16.0 | 24.0 | 0.00 | 0.00 | 0.00 | 29 | 996.4 |
| 20260504191554 | 77 | 199 | 17.0 | 25.0 | 0.00 | 0.00 | 0.00 | 29 | 996.5 |
| 20260504190116 | 75 | 203 | 14.0 | 26.0 | 0.00 | 0.00 | 0.00 | 31 | 996.7 |
| 20260504184548 | 76 | 203 | 15.0 | 23.0 | 0.00 | 0.00 | 0.00 | 29 | 996.9 |
| 20260504183043 | 76 | 224 | 12.0 | 28.0 | 0.00 | 0.00 | 0.00 | 30 | 997.0 |
| 20260504181543 | 75 | 201 | 16.0 | 25.0 | 0.00 | 0.00 | 0.00 | 28 | 997.2 |
| 20260504180041 | 74 | 182 | 17.0 | 28.0 | 0.00 | 0.00 | 0.00 | 32 | 997.2 |
| 20260504174538 | 74 | 189 | 14.0 | 26.0 | 0.00 | 0.00 | 0.00 | 32 | 997.3 |